Temp_Advection
nan nan nan nan nan nan nan nan nan nan nan nan nan nan nan nan nan nan nan nan nan nan nan nan nan nan nan nan nan nan nan nan nan nan nan nan nan nan nan nan nan nan nan nan nan nan nan
nan -0 -0 -0 -0 -0 -0 -0 0 0 0 0 0 1 0 -0 -0 -0 -0 -0 -0 0 0 0 -0 0 -0 -1 -0 0 0 0 -0 -0 -1 -1 -0 -0 -0 -0 0 -0 0 0 0 0 nan
nan -0 0 -0 -0 -0 -0 0 0 -0 0 0 -0 -0 1 0 -0 0 -0 -0 0 0 -0 -0 0 -0 -1 -1 0 0 0 0 -0 -0 -1 -0 0 -0 0 0 0 -0 0 0 0 0 nan
nan -0 -0 -0 -0 -0 -0 0 -0 0 -0 -0 -0 -0 0 0 0 0 -0 -0 -0 0 -0 -0 0 -0 -1 -0 -0 0 -0 -0 0 -0 -0 0 0 0 -0 0 0 -0 0 -0 -0 -0 nan
nan 0 -0 -0 0 -0 0 -0 -0 -0 0 -0 -0 -0 -0 0 0 -0 -0 -0 -0 0 0 0 -0 -0 -1 -0 -0 -0 -0 -0 -0 0 1 1 0 0 -0 -0 0 0 0 -1 -0 0 nan
nan 1 0 -0 -0 -0 -0 -0 -0 -0 -0 0 -0 0 -0 0 0 -0 -0 -0 -0 -0 -0 -0 -0 -0 -1 -0 -0 -0 -0 -0 -0 0 0 0 -0 -0 -0 -0 -1 -1 -1 -1 -0 0 nan
nan 1 0 0 -0 -0 -0 -0 -0 -0 -0 -0 -0 -0 -0 -0 -0 -0 -0 0 0 0 -0 -0 0 -0 0 0 -0 0 -0 0 0 0 -0 -0 -0 -1 -1 -1 -1 0 -0 -0 0 -0 nan
nan 1 1 1 0 -0 -0 -0 -0 -0 1 0 0 -0 -0 -0 -0 0 0 -0 -0 0 0 0 -0 -0 -0 -0 -0 0 0 0 0 -0 -0 -0 -0 -1 -0 0 1 0 0 0 0 -0 nan
nan 1 1 1 1 -0 -0 -0 -0 -0 0 0 0 0 0 0 -0 0 0 0 0 0 0 -0 -0 -0 -0 -0 -0 -0 0 0 0 -0 0 -0 -0 -0 0 0 0 0 0 0 0 0 nan
nan 0 1 1 1 2 0 -0 -0 -0 0 0 0 1 0 0 -0 -0 0 -0 0 -0 -0 -0 -0 0 -0 -0 -0 -0 -0 -0 -0 1 1 0 -0 0 0 -0 -0 0 0 0 0 0 nan
nan -0 1 1 1 2 2 1 0 -0 -0 0 0 0 0 -0 -0 -0 -0 0 -0 -0 -0 -0 -0 -0 -0 -0 -0 -0 -0 0 0 0 0 0 1 0 0 -0 0 -0 0 0 0 -0 nan
nan -0 0 0 0 1 2 2 2 1 -0 0 1 0 0 -0 0 -0 -0 -0 -0 -0 -0 0 0 0 0 -0 -0 -0 0 -0 0 0 -0 -0 -0 -0 -0 0 0 -0 -0 0 0 0 nan
nan -0 -0 0 0 -0 0 1 2 1 0 0 0 0 0 0 -0 -0 0 0 -0 0 0 0 0 0 0 -0 -0 -0 -0 -0 -0 -0 -0 0 0 -0 -0 1 1 0 -0 -0 -0 -0 nan
nan -0 -0 -0 -0 0 -0 0 1 1 0 0 0 0 0 0 0 -0 0 -0 0 -0 0 -0 0 -0 -0 0 0 0 -0 -0 -0 -0 -0 -0 -0 -0 -0 0 0 1 1 0 -0 -0 nan
nan -0 -0 -0 -0 -0 -0 -1 -0 0 0 0 0 0 0 0 0 -0 -0 0 -0 -0 0 -0 -0 -0 -0 -0 -0 -0 0 0 -0 -0 -0 -0 -0 -0 -0 0 0 0 -0 -0 -0 0 nan
nan -0 -0 -0 -0 -1 -0 -0 -1 -0 0 0 0 0 0 0 0 0 0 -0 -0 -0 0 0 -0 -0 -0 -0 -0 -0 -0 -0 -0 0 0 -0 -1 -0 -0 -0 -0 -0 -0 0 -0 -0 nan
nan -0 -0 -0 -0 -1 -0 -0 -1 -1 -0 -0 -0 -0 0 0 0 0 -0 0 0 0 -0 -0 0 0 -0 -0 0 0 -0 0 0 0 0 -0 -0 -0 -0 -0 -1 -0 -0 -0 -0 -0 nan
nan -0 -0 -0 -0 -0 -1 -1 -1 -1 -1 -1 -0 -0 0 0 -0 -0 -0 -0 -0 0 0 0 -0 0 0 -0 0 0 0 -0 0 0 -0 -0 -0 -0 0 0 -0 -0 -0 -0 0 0 nan
nan -0 -0 -0 -0 -0 -1 -1 -1 -1 -1 -1 -0 -0 0 -0 -0 -0 -0 -0 -0 -0 0 -0 -0 0 0 0 -0 0 -0 -0 0 -0 0 -0 -0 -0 -0 -0 -0 0 -0 0 0 -0 nan
nan -0 -0 -0 -0 -0 -1 -1 -1 -1 -0 -0 -0 -0 -0 -0 0 0 -0 -0 -0 0 0 -0 0 -0 -0 0 0 0 -0 -0 0 -0 -0 0 0 -0 -0 0 -0 0 -0 0 1 -0 nan
nan -0 -0 -0 -0 -1 -1 -1 -1 -0 -0 -0 -0 -0 -0 -0 0 0 0 0 -0 -0 0 -0 -0 -0 -0 -0 -0 -0 -0 -0 -0 0 0 0 0 0 -0 -0 0 -0 -0 0 0 -1 nan
nan -0 -0 -1 -1 -1 -0 -0 -1 -1 -0 -1 -0 -0 -1 -0 -0 -0 -0 -0 0 0 -0 0 -0 -0 0 -0 0 -0 -0 -0 -0 -0 -0 0 -0 0 -0 -0 0 -0 -0 0 -0 -0 nan
nan -0 -0 -1 -1 -0 -0 -0 -1 -1 -1 -1 -0 -0 -0 -0 -0 -0 -0 0 -0 0 -0 -0 0 0 0 -0 -0 -0 0 -0 0 -0 -0 0 -0 -0 -0 0 -0 -0 -1 -1 -0 -0 nan
nan -0 -0 -0 -0 -0 -0 -0 -0 -1 -1 -0 0 -0 -0 -0 -0 -0 -0 -0 -0 -0 -0 -0 -0 0 -0 0 0 0 0 0 0 0 0 0 -0 -0 0 -0 -0 0 0 0 0 -0 nan
nan -0 -0 -0 -0 -0 -0 -0 -0 -0 -0 -0 0 0 -0 -1 -0 -0 -0 -0 -0 -0 -0 0 0 -0 0 0 -0 0 0 0 0 0 0 0 -0 -0 -0 -0 -1 0 0 0 -0 -0 nan
nan -0 -0 -0 -0 -0 -0 -0 -0 -0 -0 -0 -0 -0 -0 -1 0 -0 -0 -0 -1 -0 0 0 -0 0 0 -0 -0 0 -0 -0 0 0 0 0 0 0 -0 -0 -0 0 -0 -0 0 0 nan
nan 0 0 -0 -0 -0 -0 -0 -0 -0 -0 0 -0 -0 0 -0 -0 -0 -0 -0 -0 -1 -0 -0 -0 -0 -0 -0 0 0 -0 -0 0 -0 -0 0 0 0 -0 -0 -1 0 -0 0 0 0 nan
nan 0 0 0 0 0 0 0 -0 0 0 0 -0 -0 -0 -0 -1 -0 -0 -1 -0 -0 -0 -0 0 -0 -0 -0 -0 -0 -0 -0 -0 -0 -0 -0 -0 -0 -0 -0 -1 0 -0 -0 -0 -0 nan
nan nan nan nan nan nan nan nan nan nan nan nan nan nan nan nan nan nan nan nan nan nan nan nan nan nan nan nan nan nan nan nan nan nan nan nan nan nan nan nan nan nan nan nan nan nan nan
Wind_Speed
22 23 25 25 25 24 24 26 27 28 26 27 26 26 23 18 15 13 11 11 11 8 8 8 9 12 8 13 18 7 20 17 24 23 23 20 28 25 19 20 17 15 10 20 9 7 10
22 24 26 24 25 25 24 25 28 28 28 30 28 26 24 20 15 13 11 10 7 7 8 7 6 10 11 14 9 10 16 12 26 25 26 24 25 24 13 10 20 13 16 12 13 10 9
22 23 23 26 27 22 28 27 25 28 30 31 28 27 22 17 12 11 11 9 6 7 7 6 6 8 13 17 7 21 12 6 22 28 28 25 19 23 7 8 15 15 17 9 16 14 7
24 23 24 26 26 24 27 23 29 28 30 31 30 28 22 13 12 10 10 8 7 10 9 5 8 7 11 14 17 12 18 10 11 27 24 21 17 22 7 6 11 12 12 14 12 13 10
25 24 25 26 24 24 24 27 25 27 30 30 29 28 17 8 6 9 5 5 8 11 10 6 6 7 9 5 18 20 15 11 12 23 21 17 15 21 11 12 11 13 12 18 13 20 10
25 23 25 27 26 25 23 24 24 26 27 30 29 27 16 3 3 4 4 3 3 5 7 4 4 5 13 9 16 16 13 14 21 23 19 14 11 12 12 14 15 18 19 19 17 10 15
27 24 24 26 25 24 23 22 24 25 26 29 31 25 15 5 3 5 2 1 2 3 7 1 2 8 6 10 14 14 13 15 24 23 12 16 8 19 25 23 17 13 17 16 12 7 8
26 25 24 26 25 24 24 22 23 24 24 26 29 25 17 6 3 4 2 3 6 3 2 3 6 8 11 7 12 13 11 4 16 16 17 7 9 18 19 18 16 9 13 14 4 10 6
25 26 25 26 27 25 24 22 21 22 19 21 24 24 15 14 3 3 4 2 3 3 2 4 3 7 6 6 10 10 7 5 9 21 19 15 7 16 15 15 13 13 13 13 6 9 8
23 26 27 26 27 26 26 23 24 21 14 16 18 19 17 6 5 8 5 5 3 2 2 1 3 2 1 7 5 13 7 4 2 17 16 9 8 15 18 19 15 12 4 7 6 9 6
22 25 28 27 27 27 26 26 23 23 17 13 13 14 13 9 1 4 5 4 3 2 2 2 3 2 6 4 14 7 13 6 3 9 3 5 15 17 16 17 15 4 10 7 3 4 4
20 24 27 28 28 28 28 27 27 24 21 18 14 10 9 6 4 1 2 1 3 3 8 5 3 4 7 7 4 6 5 7 7 7 9 4 5 4 3 2 8 13 13 8 3 1 4
19 22 25 27 29 29 28 29 28 27 26 20 13 7 5 5 4 7 7 3 2 6 1 6 4 4 5 4 4 6 5 4 4 4 3 4 4 4 2 11 8 8 13 4 4 4 4
18 19 22 25 28 28 30 30 30 28 27 21 9 5 7 5 5 2 2 2 9 5 7 4 5 9 4 2 4 1 6 7 3 6 3 2 3 2 4 2 7 12 15 3 6 6 7
16 19 21 22 27 30 30 32 33 32 27 20 8 4 7 10 4 3 2 6 3 2 1 5 7 5 3 5 5 3 1 4 5 2 2 4 4 1 3 3 4 3 6 2 2 2 1
14 17 21 21 24 30 32 33 34 33 29 20 8 5 5 8 4 6 2 4 2 1 2 4 2 3 6 5 3 4 2 3 3 2 3 4 6 6 8 7 0 3 3 2 2 4 5
15 16 19 22 24 27 30 34 33 33 31 19 5 4 7 6 6 2 4 1 4 2 2 3 2 2 3 4 2 2 1 3 1 3 1 4 3 5 5 7 9 5 4 3 3 2 3
15 17 18 21 27 27 30 34 34 30 30 19 4 3 8 3 1 1 4 3 1 3 2 2 2 3 3 4 4 2 3 2 3 1 3 3 4 4 2 2 4 5 6 9 4 5 1
15 16 17 20 24 29 29 32 33 27 27 20 10 5 6 1 0 3 4 4 1 1 2 2 2 2 2 4 2 4 3 2 2 1 2 4 4 4 2 3 3 5 8 7 2 3 5
14 16 18 21 22 26 29 31 31 24 21 13 6 3 1 0 2 2 4 4 4 2 1 0 2 2 5 4 1 5 5 2 1 2 4 1 2 2 2 3 3 5 10 11 8 4 5
14 17 19 20 21 25 27 28 27 22 17 8 4 2 3 2 1 1 2 1 3 4 2 3 3 4 3 3 4 3 5 5 3 3 1 2 1 1 2 1 2 3 7 13 13 11 6
14 16 18 21 24 18 21 26 28 20 14 6 5 5 6 5 4 4 2 2 1 2 2 4 3 5 5 2 2 4 7 7 6 8 5 3 2 1 3 3 6 9 11 11 15 15 17
14 15 18 20 18 16 18 23 26 23 16 7 7 5 4 2 2 4 1 2 1 1 1 3 1 3 4 2 1 2 3 3 1 6 9 5 5 3 1 0 5 10 19 19 15 11 15
10 13 16 17 16 16 17 20 21 24 19 10 8 5 4 2 4 3 4 3 3 1 2 3 2 3 3 5 7 6 4 3 4 3 6 6 5 3 1 2 4 1 2 2 19 12 15
8 11 14 16 16 15 13 18 18 20 19 10 13 5 4 4 6 7 4 5 6 5 4 3 1 2 6 2 4 4 3 4 4 4 6 7 7 2 2 5 10 10 6 5 8 7 18
4 8 13 14 14 15 15 13 16 13 16 12 12 11 2 6 4 5 5 4 5 6 4 3 1 4 5 1 2 3 4 4 4 5 4 6 7 4 3 3 4 4 3 4 3 3 8
4 10 15 17 14 15 16 16 12 14 14 12 10 11 4 5 5 4 3 4 4 6 4 2 4 4 3 5 4 3 4 1 4 5 6 7 6 9 8 4 7 0 6 5 3 4 8
7 10 15 13 15 14 13 15 14 12 11 12 9 9 8 5 14 8 7 8 7 6 5 4 3 5 5 6 4 4 7 6 5 5 6 10 6 6 7 5 7 7 6 4 7 6 5
7 13 15 14 8 9 12 14 14 12 11 10 9 13 11 9 12 21 22 18 15 11 6 4 5 4 2 5 6 4 4 3 7 5 8 6 7 3 6 4 3 9 4 5 4 4 2
Wind_Direction
350 347 344 347 343 343 340 337 334 332 332 329 323 319 319 312 302 295 295 296 308 299 294 275 249 228 228 232 244 218 194 198 190 186 193 193 192 190 204 205 210 219 227 221 252 170 216
352 347 348 348 345 343 341 342 342 335 332 330 324 314 305 306 300 286 289 289 286 282 288 280 251 216 216 239 243 234 161 184 191 186 191 197 201 192 220 208 211 210 228 215 209 196 198
357 349 345 347 343 349 343 342 340 337 337 337 337 330 314 296 287 274 287 257 266 275 289 267 235 219 231 228 201 217 187 149 199 190 189 193 197 198 210 197 203 253 208 214 210 197 209
354 349 348 350 345 348 340 357 345 345 341 342 340 339 323 277 275 260 279 254 270 271 272 260 221 232 249 237 233 228 219 208 187 181 187 189 202 197 228 190 185 202 213 211 207 211 220
355 350 351 344 347 351 354 348 346 350 346 348 347 348 340 318 255 282 226 264 296 279 261 218 199 214 248 232 215 203 205 198 182 169 182 185 204 196 193 189 184 205 204 210 206 197 192
359 352 349 350 352 351 349 346 351 354 352 351 354 353 353 290 290 190 180 312 358 75 126 159 234 212 242 221 180 187 189 190 175 165 169 183 200 199 198 198 200 197 216 204 204 189 223
0 354 349 353 352 351 348 351 355 353 355 357 5 8 16 28 198 163 129 52 183 152 186 322 329 228 69 149 161 159 167 184 169 166 178 177 190 197 196 205 215 215 204 239 208 139 204
359 356 352 354 355 352 349 354 356 353 356 4 10 14 25 26 154 146 99 11 28 9 186 294 301 286 287 273 168 145 151 170 175 174 172 167 212 207 202 208 214 244 194 205 165 152 209
358 356 353 355 356 352 350 352 356 354 4 10 15 15 17 44 106 127 93 58 95 49 34 3 0 285 287 187 155 136 151 85 199 178 182 184 189 217 198 206 192 201 200 198 234 182 221
358 355 353 355 360 354 350 350 351 351 1 7 14 20 20 11 20 85 88 145 130 359 176 3 343 324 221 160 89 108 120 114 325 184 178 186 203 192 192 191 196 186 197 162 174 193 218
356 355 353 354 359 360 352 349 348 347 341 345 359 18 10 24 52 111 153 140 143 311 116 87 247 153 147 168 136 100 102 161 84 115 149 180 188 192 185 190 188 142 149 145 174 239 303
355 354 354 357 358 1 359 351 347 346 343 337 328 344 2 340 352 65 111 97 309 239 32 35 59 82 105 110 58 98 51 109 86 61 65 24 47 8 356 88 187 135 126 113 106 266 244
353 355 353 359 2 360 1 358 350 347 343 343 335 331 345 353 289 282 265 314 247 36 301 347 47 95 78 86 94 120 178 133 113 130 158 24 24 26 346 108 135 164 171 152 193 196 235
348 352 353 358 1 1 0 360 356 350 345 344 340 351 359 347 306 6 37 267 50 355 68 220 101 90 70 74 30 76 156 114 134 95 105 123 131 38 309 115 177 188 198 247 208 195 175
346 349 351 360 360 5 4 359 358 354 345 346 336 341 356 350 337 112 239 50 30 296 47 142 157 104 108 114 137 162 344 74 119 207 105 149 87 120 300 106 151 181 211 13 304 65 200
341 347 345 356 2 358 360 4 354 354 351 345 337 294 311 360 32 87 25 88 160 260 10 328 49 289 138 115 138 139 145 47 96 48 315 102 109 146 133 113 227 243 181 180 213 206 215
334 343 345 347 356 358 354 354 359 348 352 346 359 293 323 345 56 60 78 78 119 42 345 340 51 125 88 130 162 82 44 113 41 77 9 112 107 139 158 209 166 164 205 226 288 290 285
331 339 343 346 346 353 352 350 356 349 349 359 358 278 328 358 297 128 121 164 314 356 355 60 91 74 157 160 156 150 140 44 95 136 112 33 95 140 150 94 315 316 240 206 228 193 274
332 330 339 342 342 343 349 345 347 350 350 350 321 285 311 218 261 105 132 143 264 244 30 10 75 21 177 157 150 139 133 26 76 11 133 159 133 124 181 201 197 226 223 234 268 340 205
326 326 332 336 342 339 342 342 342 349 345 349 321 317 294 66 11 178 176 167 179 181 185 21 119 164 162 159 10 158 140 129 121 53 48 42 161 292 260 60 115 198 213 212 194 209 209
326 330 330 337 340 339 344 349 347 350 348 5 348 12 337 310 122 212 226 186 221 205 206 207 175 252 203 167 174 160 140 143 169 148 139 279 189 83 284 63 144 232 217 210 213 220 233
326 332 336 343 345 349 353 357 357 2 4 53 11 355 329 290 296 236 166 185 243 167 252 182 256 185 196 224 251 179 187 188 184 182 197 177 153 133 273 231 251 257 247 236 227 228 246
336 340 349 355 359 360 352 359 4 9 22 54 16 346 328 319 263 267 175 148 150 314 163 267 140 198 203 65 38 351 156 213 197 192 199 194 155 184 236 212 282 264 233 220 219 215 222
341 352 1 360 358 353 353 357 7 13 24 33 22 11 322 300 264 304 339 340 231 246 326 150 279 252 99 116 113 114 116 142 148 169 200 193 176 164 311 253 240 32 67 242 220 225 218
343 9 0 2 1 350 346 350 357 3 16 26 23 29 344 291 322 273 294 301 281 246 239 231 157 101 140 169 151 161 174 184 175 195 204 217 186 194 232 240 292 263 185 180 181 243 220
336 347 353 346 347 346 352 336 345 354 4 22 20 21 355 311 61 347 314 311 293 230 197 194 130 160 171 250 255 239 219 209 180 174 206 214 230 226 164 258 261 51 146 174 194 232 181
316 320 327 340 338 336 338 343 318 345 344 -0 11 14 16 291 306 309 300 301 315 300 289 112 171 177 203 215 227 243 256 240 213 202 184 194 211 225 228 254 282 74 148 168 220 104 114
315 314 327 341 333 337 350 356 343 332 334 334 329 353 1 297 287 266 261 268 280 266 279 69 195 199 193 227 223 196 250 202 249 214 185 188 197 206 222 229 263 138 144 229 108 115 127
320 320 327 340 344 353 346 336 342 348 333 328 331 330 330 292 266 281 276 253 245 256 284 276 334 303 287 237 222 220 213 219 231 229 196 219 214 203 220 223 109 186 233 151 131 120 150
Height
1528 1523 1518 1513 1510 1505 1499 1494 1490 1486 1481 1476 1471 1466 1462 1459 1457 1456 1455 1454 1453 1452 1452 1452 1453 1454 1458 1460 1454 1453 1455 1459 1464 1471 1476 1480 1482 1485 1485 1486 1488 1490 1485 1489 1491 1495 1498
1527 1523 1518 1512 1507 1501 1496 1493 1489 1483 1477 1472 1467 1462 1458 1456 1454 1453 1452 1451 1450 1450 1450 1450 1451 1453 1456 1456 1453 1453 1452 1458 1461 1467 1473 1477 1479 1483 1483 1483 1485 1488 1488 1490 1492 1496 1498
1525 1520 1516 1511 1507 1501 1496 1491 1486 1480 1474 1468 1462 1456 1452 1451 1450 1450 1450 1449 1449 1449 1449 1448 1450 1451 1452 1451 1451 1450 1451 1455 1460 1464 1470 1476 1481 1483 1483 1485 1486 1490 1488 1491 1491 1494 1496
1523 1519 1515 1510 1505 1501 1495 1490 1484 1478 1472 1466 1459 1452 1447 1445 1447 1447 1447 1447 1447 1447 1447 1448 1448 1450 1448 1446 1448 1451 1452 1456 1457 1463 1472 1476 1480 1483 1485 1486 1488 1489 1489 1492 1488 1493 1495
1523 1520 1515 1510 1504 1500 1495 1489 1483 1478 1471 1464 1456 1449 1443 1441 1443 1444 1446 1446 1445 1444 1445 1446 1449 1450 1446 1443 1444 1449 1452 1455 1458 1464 1472 1476 1480 1482 1485 1484 1488 1486 1487 1484 1484 1487 1491
1523 1519 1515 1510 1504 1500 1493 1488 1482 1477 1470 1463 1455 1448 1442 1441 1442 1443 1445 1445 1444 1443 1445 1448 1449 1452 1443 1441 1443 1447 1450 1454 1458 1464 1472 1477 1480 1479 1479 1478 1479 1478 1485 1474 1478 1485 1486
1522 1517 1515 1509 1504 1499 1493 1486 1481 1476 1470 1464 1457 1449 1443 1442 1442 1444 1445 1446 1449 1449 1447 1444 1445 1443 1441 1443 1445 1448 1450 1454 1457 1465 1466 1472 1475 1471 1466 1464 1466 1469 1478 1474 1473 1484 1486
1522 1517 1513 1508 1503 1497 1492 1486 1480 1476 1471 1466 1460 1452 1447 1444 1443 1444 1446 1448 1448 1450 1447 1447 1447 1445 1445 1443 1444 1447 1452 1453 1455 1461 1464 1474 1472 1467 1468 1468 1468 1474 1474 1477 1479 1484 1489
1523 1517 1512 1507 1501 1497 1492 1486 1480 1476 1471 1467 1463 1456 1451 1446 1445 1448 1450 1450 1449 1450 1450 1449 1449 1447 1445 1446 1444 1448 1453 1457 1456 1458 1461 1465 1467 1468 1467 1469 1472 1473 1476 1478 1481 1487 1486
1522 1518 1512 1506 1502 1497 1493 1486 1482 1476 1471 1467 1464 1459 1454 1451 1453 1450 1451 1449 1449 1450 1448 1452 1450 1448 1447 1445 1448 1449 1453 1461 1461 1458 1464 1470 1466 1473 1467 1469 1469 1473 1475 1478 1486 1485 1482
1523 1518 1512 1507 1502 1497 1491 1487 1481 1477 1472 1468 1465 1461 1456 1452 1452 1454 1452 1449 1450 1452 1430 1455 1452 1449 1446 1448 1450 1454 1456 1459 1458 1462 1471 1471 1468 1467 1466 1467 1467 1475 1480 1484 1488 1485 1483
1521 1517 1513 1508 1502 1497 1492 1486 1481 1476 1471 1467 1464 1460 1457 1454 1452 1452 1451 1450 1451 1447 1435 1449 1449 1448 1445 1446 1450 1454 1457 1459 1462 1466 1467 1472 1473 1474 1469 1468 1469 1480 1484 1488 1489 1488 1490
1520 1516 1512 1507 1502 1498 1491 1485 1479 1474 1470 1465 1461 1459 1455 1453 1454 1450 1449 1451 1445 1438 1456 1456 1450 1450 1449 1450 1453 1455 1457 1455 1461 1468 1472 1475 1479 1479 1479 1477 1480 1478 1481 1490 1494 1496 1482
1519 1515 1511 1506 1501 1496 1490 1485 1479 1473 1468 1464 1460 1458 1455 1452 1449 1448 1448 1448 1438 1454 1452 1454 1451 1450 1452 1455 1457 1454 1451 1457 1461 1463 1466 1468 1478 1486 1482 1481 1481 1479 1473 1472 1478 1473 1469
1517 1514 1510 1506 1500 1495 1491 1485 1479 1473 1467 1464 1460 1458 1454 1451 1448 1448 1450 1449 1455 1457 1450 1449 1447 1447 1450 1452 1455 1452 1448 1448 1453 1455 1461 1465 1476 1485 1484 1483 1483 1490 1485 1478 1475 1474 1471
1516 1512 1509 1506 1502 1497 1490 1485 1479 1473 1467 1462 1459 1457 1455 1452 1448 1448 1449 1455 1457 1455 1451 1448 1445 1446 1442 1446 1446 1446 1448 1452 1453 1456 1454 1456 1472 1483 1482 1486 1488 1487 1477 1484 1482 1480 1468
1514 1512 1509 1505 1501 1497 1491 1483 1479 1472 1467 1462 1459 1459 1455 1452 1450 1450 1456 1460 1453 1455 1454 1451 1448 1445 1442 1448 1447 1446 1450 1456 1454 1456 1455 1454 1458 1480 1478 1476 1475 1487 1481 1476 1472 1473 1464
1513 1512 1508 1504 1500 1496 1492 1485 1478 1472 1466 1462 1460 1459 1455 1453 1454 1449 1451 1457 1457 1453 1453 1452 1452 1451 1447 1450 1450 1449 1449 1450 1457 1456 1455 1459 1462 1472 1472 1474 1475 1471 1466 1467 1469 1477 1473
1512 1508 1507 1503 1499 1494 1490 1484 1479 1473 1467 1463 1463 1460 1456 1454 1450 1451 1454 1454 1455 1452 1452 1450 1450 1452 1453 1452 1453 1453 1454 1459 1459 1457 1456 1459 1465 1476 1476 1475 1474 1473 1469 1468 1468 1475 1479
1510 1508 1505 1501 1498 1494 1488 1483 1478 1473 1467 1465 1466 1463 1457 1455 1454 1449 1450 1450 1451 1455 1453 1453 1452 1452 1451 1451 1452 1455 1456 1460 1462 1460 1461 1461 1462 1465 1460 1463 1461 1472 1467 1469 1475 1477 1465
1509 1507 1505 1501 1495 1492 1488 1482 1475 1472 1466 1464 1468 1465 1466 1454 1453 1453 1453 1452 1450 1450 1453 1452 1451 1450 1448 1450 1451 1453 1455 1460 1462 1463 1462 1461 1469 1473 1465 1466 1468 1470 1468 1469 1473 1470 1465
1507 1506 1502 1499 1495 1489 1487 1483 1476 1470 1466 1466 1469 1470 1467 1460 1459 1454 1454 1450 1450 1452 1452 1450 1449 1449 1449 1449 1448 1451 1453 1454 1455 1462 1462 1464 1473 1472 1472 1468 1469 1470 1465 1463 1466 1466 1463
1507 1505 1501 1499 1495 1491 1488 1483 1479 1472 1468 1468 1470 1471 1471 1460 1456 1454 1448 1450 1452 1454 1453 1453 1449 1448 1450 1451 1453 1453 1453 1453 1454 1456 1459 1461 1469 1472 1464 1468 1468 1463 1454 1455 1456 1457 1459
1506 1504 1502 1498 1495 1492 1490 1486 1482 1478 1473 1473 1472 1473 1472 1457 1458 1454 1456 1456 1454 1454 1452 1453 1453 1450 1455 1454 1456 1456 1455 1456 1456 1457 1458 1459 1466 1468 1468 1471 1465 1444 1445 1444 1448 1450 1454
1505 1503 1501 1498 1494 1491 1489 1489 1486 1483 1478 1475 1473 1473 1475 1467 1461 1459 1460 1459 1457 1455 1454 1454 1455 1456 1457 1457 1455 1456 1457 1457 1457 1458 1458 1458 1461 1464 1466 1459 1445 1437 1442 1446 1446 1441 1444
1503 1502 1499 1498 1493 1494 1489 1488 1484 1484 1481 1478 1475 1474 1475 1475 1462 1466 1465 1464 1457 1452 1454 1454 1456 1456 1457 1457 1454 1453 1454 1448 1455 1457 1459 1459 1457 1462 1464 1465 1452 1438 1440 1442 1443 1438 1439
1501 1501 1498 1495 1493 1492 1489 1488 1487 1484 1482 1480 1477 1475 1475 1475 1468 1467 1465 1464 1463 1459 1454 1454 1456 1457 1458 1453 1455 1456 1454 1448 1449 1453 1457 1458 1458 1460 1459 1460 1445 1434 1441 1443 1448 1447 1444
1498 1497 1495 1493 1491 1491 1489 1487 1486 1483 1482 1480 1479 1476 1476 1474 1467 1465 1466 1465 1463 1462 1455 1456 1457 1454 1456 1454 1452 1451 1447 1444 1445 1442 1446 1451 1454 1454 1454 1457 1453 1436 1443 1443 1441 1443 1445
1495 1496 1494 1492 1488 1486 1487 1487 1484 1482 1481 1478 1477 1475 1473 1472 1466 1462 1460 1460 1461 1463 1462 1458 1456 1452 1449 1447 1443 1441 1441 1440 1440 1441 1443 1447 1441 1443 1443 1439 1437 1438 1437 1440 1442 1443 1445